[[{"header":{"parameterUnit":"m.s-1","parameterCategory":1,"la1":30.2991,"la2":30.254,"lo1":-89.0895,"lo2":-89.0444,"dy":0.0017,"dx":0.0017,"nx":28,"ny":28,"refTime":"2025-05-19T09:00:00:Z","depth":0,"parameterNumber":2,"parameterNumberName":"U-component_of_WINDS"},"data":[0,0,0,0,0,0,0,0,0,0,0,0,0,0,0,0,0,0,0,0,0,0,0,0,0,0,0,0,0,0,0,0,0,0,0,0,0,0,0,0,0,0,0,0,0,0,0,0,0,0,0,0,0,0,0,0,0,0,-0.3706,-0.3706,0,-0.3722,-0.3723,-0.3723,-0.3715,-0.3715,-0.3714,-0.3714,-0.373,-0.3731,-0.3732,0,0,0,0,0,0,0,0,0,0,0,0,0,-0.3669,-0.367,-0.3706,-0.3706,-0.3707,-0.3722,-0.3723,-0.3723,-0.3715,-0.3715,-0.3714,-0.3714,-0.373,-0.3731,-0.3732,0,0,0,0,0,0,0,0,0,0,0,0,0,-0.3685,-0.367,-0.3706,-0.3705,-0.3705,-0.3722,-0.3723,-0.3723,-0.3715,-0.3715,-0.3714,-0.3713,-0.373,-0.3731,-0.3732,-0.3752,0,0,-0.3736,-0.3737,0,0,0,0,0,0,0,0,-0.3684,-0.3687,-0.3705,-0.3705,-0.3705,-0.3716,-0.3716,-0.3733,-0.3715,-0.3711,-0.3714,-0.3713,-0.3726,-0.3728,-0.3732,-0.3753,-0.3754,-0.3736,-0.3737,-0.3737,-0.3738,0,0,0,0,0,0,0,-0.3683,-0.3686,-0.3713,-0.3705,-0.3705,-0.3703,-0.3705,-0.3719,-0.3722,-0.3712,-0.3711,-0.3713,-0.3726,-0.3731,-0.3732,-0.3754,-0.3736,-0.3737,-0.3738,-0.3739,-0.3793,-0.3793,0,0,0,0,0,0,-0.3682,-0.3685,-0.3712,-0.3713,-0.3693,-0.3705,-0.3706,-0.3713,-0.3722,-0.3723,-0.3714,-0.3713,-0.3729,-0.3731,-0.3733,-0.3757,-0.3737,-0.3739,-0.3739,-0.3792,-0.3793,-0.3794,0,0,0,0,0,0,-0.3681,-0.3685,-0.3711,-0.3699,-0.3702,-0.3706,-0.3713,-0.3714,-0.3718,-0.3723,-0.3724,-0.3718,-0.3729,-0.3731,-0.3748,-0.3757,-0.3739,-0.374,-0.3791,-0.3792,-0.3793,-0.3805,0,0,0,0,0,0,-0.368,-0.3684,-0.3692,-0.3699,-0.3703,-0.3726,-0.3714,-0.3714,-0.3721,-0.372,-0.3727,-0.3728,-0.3728,-0.3746,-0.3749,-0.3759,-0.3741,-0.379,-0.3792,-0.3793,-0.3804,-0.3806,-0.3808,0,0,0,0,0,-0.3679,-0.3694,-0.3692,-0.3695,-0.3712,-0.3726,-0.3728,-0.3728,-0.3721,-0.3729,-0.3732,-0.3728,-0.3756,-0.3748,-0.3751,-0.3761,-0.379,-0.3791,-0.3793,-0.3802,-0.3806,-0.3808,0,0,0,0,0,0,-0.3688,-0.3695,-0.3693,-0.3711,-0.3718,-0.3725,-0.3734,-0.3732,-0.3741,-0.3739,-0.3739,-0.3741,-0.3758,-0.3761,-0.3752,-0.3781,-0.3772,-0.3774,-0.3778,-0.3781,-0.3783,-0.3782,-0.3742,0,0,0,0,0,-0.3692,-0.3703,-0.3709,-0.3724,-0.3728,-0.3731,-0.3737,-0.3736,-0.3743,-0.3746,-0.375,-0.3758,-0.3768,-0.3775,-0.3785,-0.3805,-0.3806,-0.3813,-0.3816,-0.3818,-0.3819,-0.383,-0.3833,-0.3799,-0.3799,-0.3799,0,0,-0.37,-0.3706,-0.3712,-0.3726,-0.3731,-0.3742,-0.3733,-0.3745,-0.3753,-0.3748,-0.3763,-0.3767,-0.3775,-0.3793,-0.3802,-0.3797,-0.3829,-0.382,-0.3821,-0.3822,-0.3832,-0.3835,-0.3838,-0.38,-0.38,-0.3799,0,0,-0.3721,-0.3727,-0.374,-0.3746,-0.3754,-0.3756,-0.3759,-0.3767,-0.3769,-0.3785,-0.3781,-0.3791,-0.3809,-0.3815,-0.382,-0.3845,-0.3841,-0.3848,-0.386,-0.387,-0.3873,-0.3875,-0.3884,-0.3887,-0.385,-0.385,-0.385,0,-0.3731,-0.3747,-0.3747,-0.376,-0.3766,-0.3762,-0.3776,-0.3781,-0.3792,-0.3797,-0.3792,-0.3814,-0.382,-0.3839,-0.3845,-0.385,-0.3853,-0.3846,-0.3873,-0.3875,-0.3877,-0.3885,-0.3888,-0.3851,-0.3851,-0.3851,-0.385,0,-0.3758,-0.377,-0.378,-0.3791,-0.3798,-0.3811,-0.3813,-0.3821,-0.382,-0.3823,-0.3839,-0.3845,-0.3856,-0.3861,-0.386,-0.3881,-0.3877,-0.3873,-0.3863,-0.3881,-0.3889,-0.3892,-0.3852,-0.3852,-0.3851,-0.3851,0,0,-0.3784,-0.3796,-0.3799,-0.3804,-0.3813,-0.3822,-0.3836,-0.3847,-0.3853,-0.3861,-0.3872,-0.3888,-0.3883,-0.389,-0.389,-0.3899,-0.3917,-0.3893,-0.3893,-0.3897,-0.394,-0.3943,-0.3946,-0.3915,-0.3916,-0.3917,-0.3939,0,-0.3805,-0.3828,-0.3829,-0.385,-0.386,-0.3857,-0.3869,-0.3876,-0.3879,-0.3888,-0.3892,-0.3903,-0.3897,-0.39,-0.3909,-0.3913,-0.3926,-0.3912,-0.3925,-0.3926,-0.3922,-0.395,-0.3953,-0.3974,-0.3942,-0.3942,-0.3943,0,-0.3833,-0.3842,-0.3863,-0.3872,-0.3876,-0.3886,-0.3897,-0.3906,-0.3914,-0.3916,-0.3923,-0.3922,-0.3936,-0.3926,-0.3945,-0.3935,-0.3941,-0.3944,-0.3945,-0.3945,-0.3934,-0.395,-0.398,-0.3983,-0.3947,-0.3947,-0.3946,0,-0.3849,-0.3867,-0.3882,-0.3886,-0.3896,-0.3903,-0.3908,-0.3916,-0.3922,-0.3932,-0.3936,-0.3947,-0.3952,-0.3961,-0.3963,-0.3956,-0.3981,-0.3972,-0.3983,-0.3983,-0.3987,-0.3987,-0.4018,-0.3993,-0.3993,-0.3993,-0.3992,0,-0.3872,-0.3885,-0.3889,-0.3898,-0.3913,-0.3915,-0.393,-0.3934,-0.3941,-0.3951,-0.3949,-0.3959,-0.3961,-0.3971,-0.3973,-0.3988,-0.3991,-0.3992,-0.3993,-0.3992,-0.3992,-0.3995,-0.3993,-0.3993,-0.3993,-0.3993,-0.3993,0,-0.3892,-0.3895,-0.3912,-0.392,-0.3922,-0.3933,-0.394,-0.3949,-0.3952,-0.3965,-0.3968,-0.3973,-0.3985,-0.3988,-0.4003,-0.4004,-0.4021,-0.4021,-0.4018,-0.4018,-0.4028,-0.4027,-0.4062,-0.4066,-0.4039,-0.4039,-0.4039,0,-0.3906,-0.3916,-0.3926,-0.3932,-0.3937,-0.3948,-0.3955,-0.3957,-0.3964,-0.3975,-0.3982,-0.3994,-0.4003,-0.4023,-0.4028,-0.4039,-0.4038,-0.4049,-0.4039,-0.4038,-0.4037,-0.4036,-0.4037,-0.4051,-0.4051,-0.4051,-0.4051,0,-0.393,-0.3932,-0.3942,-0.3952,-0.396,-0.3969,-0.3977,-0.3983,-0.3986,-0.3994,-0.4006,-0.4014,-0.4029,-0.404,-0.4051,-0.4056,-0.4054,-0.4055,-0.4057,-0.4057,-0.4055,-0.4055,-0.4023,-0.4053,-0.4053,-0.4053,-0.4053,-0.4053,-0.3948,-0.3956,-0.3964,-0.3976,-0.3982,-0.399,-0.3999,-0.4003,-0.4013,-0.4025,-0.4026,-0.4039,-0.4048,-0.4062,-0.4068,-0.4078,-0.4075,-0.4079,-0.408,-0.4081,-0.4082,-0.4054,-0.4081,-0.4081,-0.408,-0.408,-0.408,0,-0.3971,-0.3977,-0.3987,-0.3998,-0.4007,-0.4005,-0.4014,-0.4022,-0.4033,-0.4041,-0.4051,-0.4065,-0.4076,-0.4082,-0.4094,-0.4101,-0.41,-0.4104,-0.4103,-0.4104,-0.4084,-0.408,-0.4104,-0.4104,-0.4104,-0.4104,-0.4104,-0.4104,-0.3985,-0.4,-0.4002,-0.402,-0.4025,-0.4038,-0.4043,-0.4051,-0.4057,-0.4073,-0.4082,-0.4086,-0.4094,-0.4106,-0.4116,-0.4118,-0.4121,-0.4125,-0.4126,-0.4108,-0.4105,-0.4103,-0.4099,-0.4126,-0.4126,-0.4145,-0.4145,-0.4145]},{"header":{"parameterUnit":"m.s-1","parameterCategory":1,"la1":30.2991,"la2":30.254,"lo1":-89.0895,"lo2":-89.0444,"dy":0.0017,"dx":0.0017,"nx":28,"ny":28,"refTime":"2025-05-19T09:00:00:Z","depth":0,"parameterNumber":3,"parameterNumberName":"V-component_of_WINDS"},"data":[0,0,0,0,0,0,0,0,0,0,0,0,0,0,0,0,0,0,0,0,0,0,0,0,0,0,0,0,0,0,0,0,0,0,0,0,0,0,0,0,0,0,0,0,0,0,0,0,0,0,0,0,0,0,0,0,0,0,6.346,6.346,0,6.3445,6.3445,6.3445,6.3417,6.3417,6.3416,6.3416,6.3398,6.3398,6.3398,0,0,0,0,0,0,0,0,0,0,0,0,0,6.3463,6.3463,6.346,6.346,6.346,6.3445,6.3445,6.3445,6.3417,6.3417,6.3416,6.3416,6.3398,6.3398,6.3398,0,0,0,0,0,0,0,0,0,0,0,0,0,6.3456,6.3463,6.346,6.3444,6.3443,6.3445,6.3445,6.3445,6.3418,6.3417,6.3416,6.3415,6.3398,6.3398,6.3398,6.3414,0,0,6.3398,6.3398,0,0,0,0,0,0,0,0,6.3456,6.3456,6.3447,6.3445,6.3444,6.3432,6.3439,6.3434,6.3418,6.3427,6.3416,6.3415,6.341,6.3409,6.3408,6.3413,6.3412,6.3398,6.3398,6.3398,6.3398,0,0,0,0,0,0,0,6.3457,6.3456,6.3454,6.3447,6.3445,6.3437,6.3436,6.3438,6.3423,6.3426,6.3424,6.3423,6.3409,6.3408,6.3407,6.3412,6.3398,6.3398,6.3398,6.3398,6.3431,6.3432,0,0,0,0,0,0,6.346,6.3457,6.3455,6.3454,6.3448,6.3438,6.3436,6.3437,6.3423,6.342,6.3424,6.3422,6.3408,6.3407,6.3406,6.3425,6.3398,6.3398,6.3398,6.343,6.3431,6.3432,0,0,0,0,0,0,6.346,6.346,6.3455,6.3455,6.3454,6.3439,6.344,6.3437,6.3436,6.3421,6.3418,6.3426,6.3407,6.3406,6.3413,6.3424,6.3398,6.3398,6.3429,6.3431,6.3432,6.3463,0,0,0,0,0,0,6.346,6.346,6.3466,6.3455,6.3454,6.3462,6.3441,6.3437,6.3436,6.3434,6.3422,6.3419,6.3407,6.3413,6.3413,6.3424,6.3398,6.3428,6.343,6.3431,6.346,6.3465,6.3468,0,0,0,0,0,6.3461,6.3475,6.3467,6.3467,6.3461,6.3463,6.3462,6.3448,6.3437,6.3443,6.3434,6.342,6.3423,6.3414,6.3413,6.3425,6.3427,6.3429,6.3431,6.3459,6.3464,6.3468,0,0,0,0,0,0,6.3486,6.3473,6.3464,6.3475,6.3471,6.3458,6.3465,6.3454,6.3452,6.3449,6.3431,6.3429,6.3438,6.3432,6.3422,6.344,6.3423,6.3425,6.3444,6.3449,6.3453,6.3454,6.3398,0,0,0,0,0,6.3493,6.3497,6.3484,6.3495,6.3494,6.348,6.348,6.347,6.3465,6.3462,6.3453,6.3448,6.3447,6.3448,6.3446,6.3459,6.3457,6.3467,6.3471,6.3474,6.3476,6.3484,6.3489,6.3439,6.3439,6.3439,0,0,6.3508,6.3501,6.3504,6.35,6.3496,6.3499,6.3479,6.3483,6.3485,6.3462,6.3469,6.3462,6.3454,6.3465,6.3469,6.346,6.349,6.3477,6.348,6.348,6.3487,6.3491,6.3496,6.344,6.344,6.344,0,0,6.3536,6.3531,6.354,6.3536,6.353,6.3522,6.3524,6.3514,6.3509,6.3515,6.3499,6.3501,6.3501,6.3497,6.3495,6.3523,6.351,6.3523,6.3544,6.3552,6.3556,6.3559,6.3571,6.3575,6.3525,6.3525,6.3525,0,6.3554,6.356,6.3546,6.3552,6.3551,6.3533,6.3542,6.3539,6.3532,6.3532,6.3522,6.3523,6.3516,6.3526,6.3534,6.3532,6.3534,6.3525,6.3557,6.356,6.3563,6.3574,6.3578,6.3527,6.3527,6.3527,6.3527,0,6.3583,6.3587,6.3595,6.3592,6.3592,6.3599,6.3587,6.3588,6.3579,6.3571,6.3578,6.357,6.3568,6.3569,6.3559,6.3578,6.3573,6.356,6.3543,6.357,6.358,6.3583,6.353,6.3529,6.3528,6.3528,0,0,6.3626,6.3616,6.3619,6.3618,6.3611,6.3613,6.362,6.362,6.3622,6.3618,6.3624,6.3625,6.3614,6.3612,6.3601,6.3608,6.3633,6.3595,6.3594,6.3603,6.3655,6.3665,6.367,6.3624,6.3625,6.3626,6.3656,0,6.3653,6.3666,6.3655,6.3669,6.3673,6.3656,6.3662,6.3659,6.3652,6.3654,6.3646,6.3648,6.3632,6.3631,6.3637,6.3629,6.3643,6.3626,6.363,6.363,6.3633,6.3675,6.3685,6.3714,6.3659,6.366,6.366,0,6.3687,6.3687,6.3702,6.3696,6.3697,6.3703,6.3702,6.3704,6.37,6.3694,6.3693,6.3681,6.3687,6.367,6.3679,6.3668,6.3669,6.3665,6.3666,6.3666,6.3647,6.3677,6.3723,6.3728,6.3666,6.3666,6.3665,0,6.3718,6.3722,6.3732,6.3731,6.3723,6.3728,6.3725,6.372,6.372,6.3719,6.372,6.3719,6.3719,6.3718,6.3707,6.3695,6.3717,6.3699,6.3713,6.3714,6.3719,6.3719,6.3767,6.3718,6.3718,6.3718,6.3718,0,6.375,6.376,6.3746,6.3752,6.3764,6.3751,6.3762,6.3757,6.3753,6.3758,6.3742,6.3747,6.3731,6.3734,6.3724,6.3734,6.3733,6.373,6.3727,6.3731,6.3732,6.3732,6.373,6.3719,6.3719,6.3719,6.3719,0,6.3787,6.3778,6.3788,6.3781,6.3779,6.3788,6.3781,6.3787,6.3779,6.3786,6.3787,6.3775,6.3778,6.3767,6.3767,6.3761,6.3775,6.3769,6.3778,6.3776,6.3791,6.3791,6.3841,6.3848,6.3794,6.3795,6.3795,0,6.3808,6.3816,6.381,6.3813,6.3811,6.3816,6.3817,6.3805,6.3807,6.3803,6.3809,6.3811,6.3813,6.3818,6.381,6.381,6.3804,6.3822,6.3804,6.3809,6.3806,6.3806,6.3807,6.3826,6.3827,6.3827,6.3828,0,6.3848,6.3843,6.3846,6.3848,6.3851,6.3851,6.3851,6.3854,6.384,6.3843,6.3847,6.3848,6.385,6.3853,6.3852,6.3848,6.3836,6.3833,6.3837,6.3842,6.3847,6.3846,6.3789,6.3832,6.3832,6.3831,6.3831,6.3831,6.3878,6.3885,6.3883,6.3887,6.3886,6.3886,6.3892,6.3886,6.3889,6.3891,6.3883,6.3889,6.3885,6.3883,6.3881,6.3885,6.3876,6.3881,6.3883,6.3884,6.3888,6.3846,6.3884,6.3884,6.3884,6.3884,6.3884,0,6.3918,6.3916,6.392,6.3921,6.3924,6.3914,6.3913,6.3917,6.3922,6.3921,6.3923,6.3928,6.3931,6.3923,6.3925,6.393,6.3924,6.3931,6.393,6.393,6.3894,6.3892,6.3935,6.3935,6.3935,6.3935,6.3935,6.3935,6.3939,6.3951,6.3946,6.3957,6.3955,6.3962,6.3962,6.3963,6.3962,6.3968,6.3971,6.3967,6.3963,6.3964,6.3967,6.3964,6.3966,6.3975,6.3971,6.3937,6.3932,6.3928,6.3925,6.3975,6.3975,6.4006,6.4007,6.4007]}]]